DW9840 Weather Reports


Display with metric or nautical units.
time (UTC)temp
F
wind
direction
speed
MPH
gust
MPH
rain 1hr
in
rain 24hr
in
rain mn
in
humidity
%
barometer
mb
20260504081549 55 102 0.0 0.0 0.00 0.00 0.00 3 1013.8
20260504044539 59 187 0.0 0.0 0.00 0.00 0.00 3 1013.4
20260504043034 59 208 0.0 0.0 0.00 0.00 0.00 3 1013.3
20260504041513 59 223 0.0 0.0 0.00 0.00 0.00 3 1013.2
20260504040051 59 219 0.0 0.0 0.00 0.00 0.00 3 1013.1
20260504034550 59 211 0.0 0.0 0.00 0.00 0.00 3 1012.8
20260504033027 58 215 0.0 0.0 0.00 0.00 0.00 13 1012.7
20260504031523 58 188 0.0 0.0 0.00 0.00 0.00 30 1012.5
20260504030025 58 183 0.0 0.0 0.00 0.00 0.00 41 1012.5
20260504024514 59 203 0.0 0.0 0.00 0.00 0.00 51 1012.4
20260504023013 60 205 0.0 0.0 0.00 0.00 0.00 56 1012.1
20260504021504 61 229 0.0 1.0 0.00 0.00 0.00 58 1012.1
20260504020140 61 135 0.0 3.0 0.00 0.00 0.00 61 1012.1
20260504014604 62 195 0.0 5.0 0.00 0.00 0.00 62 1012.1
20260504013043 63 243 0.0 1.0 0.00 0.00 0.00 62 1012.2
20260504011529 64 211 0.0 4.0 0.00 0.00 0.00 60 1012.1
20260504010008 62 262 0.0 5.0 0.00 0.00 0.00 61 1012.2
20260504004503 62 276 0.0 2.0 0.00 0.00 0.00 60 1012.2
20260504003052 61 264 0.0 3.0 0.00 0.00 0.00 61 1012.2
20260504001615 61 217 0.0 7.0 0.00 0.00 0.00 63 1012.3
20260504000041 62 313 0.0 3.0 0.00 0.00 0.00 63 1012.2
20260503234533 63 211 0.0 4.0 0.00 0.00 0.00 63 1012.0
20260503233028 63 196 0.0 3.0 0.00 0.00 0.00 64 1011.9
20260503231524 63 224 0.0 2.0 0.00 0.00 0.00 63 1011.9
20260503230019 64 214 0.0 1.0 0.00 0.00 0.00 61 1011.7
20260503224514 65 236 0.0 1.0 0.00 0.00 0.00 60 1011.6
20260503223053 64 201 0.0 4.0 0.00 0.00 0.00 61 1011.7
20260503221551 64 236 0.0 3.0 0.00 0.00 0.00 61 1011.7
20260503220035 65 245 0.0 5.0 0.00 0.00 0.00 59 1011.8
20260503214522 65 225 0.0 6.0 0.00 0.00 0.00 58 1011.9
20260503213002 66 285 0.0 2.0 0.00 0.00 0.00 58 1011.7
20260503211600 64 172 0.0 0.0 0.00 0.00 0.00 60 1011.8
20260503210053 64 229 0.0 0.0 0.00 0.00 0.00 60 1011.8
20260503204550 64 228 0.0 1.0 0.00 0.00 0.00 61 1011.8
20260503203102 64 270 0.0 3.0 0.00 0.00 0.00 61 1011.9
20260503201538 64 284 0.0 0.0 0.00 0.00 0.00 61 1011.9
20260503200035 63 349 0.0 0.0 0.00 0.00 0.00 60 1012.1
20260503194539 62 269 0.0 0.0 0.00 0.00 0.00 61 1012.2
20260503193009 61 269 0.0 0.0 0.00 0.00 0.00 61 1012.3
20260503191504 61 113 0.0 1.0 0.00 0.00 0.00 61 1012.4
20260503190046 61 256 0.0 0.0 0.00 0.00 0.00 60 1012.3
20260503184538 61 280 0.0 0.0 0.00 0.00 0.00 56 1012.3
20260503183019 60 256 0.0 0.0 0.00 0.00 0.00 53 1012.5
20260503181519 59 214 0.0 0.0 0.00 0.00 0.00 53 1012.3
20260503174558 60 208 0.0 2.0 0.00 0.00 0.00 54 1012.4
20260503173034 60 231 0.0 0.0 0.00 0.00 0.00 50 1012.2
20260503171529 59 133 0.0 1.0 0.00 0.00 0.00 39 1012.2